This is the latest recevied weather packets stored in our database for station/object KU9TRY. If no packets are shown the sender has not sent any weather packets the latest 10 day(s).
| Time | Temp. | Humidity | Pressure | Rain* | Wind** | Luminosity | Snow |
|---|---|---|---|---|---|---|---|
| 1777589066 | 16.11° C | 51% | 1014.9 hPa | 0 mm | - | 44 W/m² | - |
| 1777588762 | 16.67° C | 44% | 1014.9 hPa | 0 mm | - | 43 W/m² | - |
| 1777588458 | 16.67° C | 41% | 1014.7 hPa | 0 mm | - | 56 W/m² | - |
| 1777588153 | 16.11° C | 44% | 1014.6 hPa | 0 mm | - | 68 W/m² | - |
| 1777587850 | 16.11° C | 51% | 1014.8 hPa | 0 mm | - | 61 W/m² | - |
| 1777587550 | 16.11° C | 47% | 1014.7 hPa | 0 mm | - | 50 W/m² | - |
| 1777587245 | 16.11° C | 50% | 1014.7 hPa | 0 mm | - | 48 W/m² | - |
| 1777586941 | 16.67° C | 47% | 1014.8 hPa | 0 mm | - | 57 W/m² | - |
| 1777586637 | 16.67° C | 38% | 1014.8 hPa | 0 mm | - | 52 W/m² | - |
| 1777586332 | 16.67° C | 49% | 1014.8 hPa | 0 mm | - | 48 W/m² | - |
| 1777586031 | 16.67° C | 40% | 1014.9 hPa | 0 mm | - | 52 W/m² | - |
| 1777585730 | 16.67° C | 51% | 1014.8 hPa | 0 mm | - | 52 W/m² | - |
| 1777585430 | 17.22° C | 42% | 1014.9 hPa | 0 mm | - | 61 W/m² | - |
| 1777585126 | 17.22° C | 44% | 1014.9 hPa | 0 mm | - | 65 W/m² | - |
| 1777584822 | 17.22° C | 39% | 1014.9 hPa | 0 mm | - | 55 W/m² | - |
| 1777584520 | 17.22° C | 42% | 1014.8 hPa | 0 mm | - | 84 W/m² | - |
| 1777584217 | 17.78° C | 36% | 1014.8 hPa | 0 mm | - | 61 W/m² | - |
| 1777583916 | 17.78° C | 38% | 1014.8 hPa | 0 mm | - | 64 W/m² | - |
| 1777583612 | 17.22° C | 38% | 1014.9 hPa | 0 mm | - | 73 W/m² | - |
| 1777583310 | 17.22° C | 38% | 1014.9 hPa | 0 mm | - | 64 W/m² | - |
| 1777583005 | 17.78° C | 36% | 1015.1 hPa | 0 mm | - | 69 W/m² | - |
| 1777582703 | 17.78° C | 36% | 1015 hPa | 0 mm | - | 61 W/m² | - |
| 1777582403 | 17.78° C | 41% | 1015.2 hPa | 0 mm | - | 63 W/m² | - |
| 1777582102 | 17.22° C | 37% | 1015.2 hPa | 0 mm | - | 55 W/m² | - |
| 1777581797 | 17.78° C | 40% | 1015.3 hPa | 0 mm | - | 50 W/m² | - |
* Rain latest hour (hover to see other rain measurements)
** Current wind speed in m/s (hover to see current wind gust speed)